Location: Hiram
(41.3130°N, 81.1440°W)
Time: 18:22:27
(UTC-04:00)

Iridium 62 - Visible Passes

Search period start: 26 May 2016 00:00
Search period end: 05 June 2016 00:00
Orbit: 776 x 779 km, 86.4° (Epoch: 26 May)

Date Brightness Start Highest point End Pass type
(mag) Time Alt. Az. Time Alt. Az. Time Alt. Az.
26 May 6.8 21:38:27 10° NNE 21:43:04 31° E 21:47:05 13° SE visible
26 May 7.4 23:19:12 10° NNW 23:23:41 30° W 23:27:34 13° SW visible
27 May 6.4 22:45:15 10° NNW 22:50:20 55° W 22:54:27 15° SSW visible
28 May 5.8 22:11:36 10° N 22:16:51 82° E 22:21:22 14° S visible
28 May 8.5 23:55:14 10° WNW 23:56:46 11° WNW 23:58:18 10° W visible
29 May 6.3 21:38:16 10° N 21:43:16 44° E 21:48:13 10° SSE visible
29 May 8.0 23:19:47 10° NNW 23:23:37 21° W 23:27:26 10° SW visible
30 May 7.1 22:45:33 10° NNW 22:50:20 38° W 22:55:06 10° SSW visible
31 May 6.1 22:11:44 10° N 22:16:56 70° W 22:22:06 10° S visible
01 Jun 5.9 21:38:12 10° N 21:43:24 64° E 21:48:34 10° SSE visible
01 Jun 8.4 23:20:43 10° NW 23:23:30 15° WNW 23:26:16 10° WSW visible
02 Jun 7.8 22:46:00 10° NNW 22:50:17 26° W 22:54:34 10° SW visible
03 Jun 6.8 22:11:57 10° NNW 22:16:57 48° W 22:21:56 10° SSW visible
04 Jun 5.9 21:38:15 10° N 21:43:30 88° W 21:48:43 10° S visible
